{"data":{"norad_id":68245,"epoch":"2026-09-19T22:49:40.944576Z","epoch_age_seconds":98993,"freshness":"FRESH","line1":"1 68245U 26054P   26262.95116834  .00018714  00000+0  56286-3 0  9997","line2":"2 68245  53.1581 104.6380 0001124  78.1292 281.9837 15.34442309 28877","mean_motion":15.34442309,"eccentricity":0.0001124,"inclination_deg":53.1581,"raan_deg":104.638,"arg_perigee_deg":78.1292,"mean_anomaly_deg":281.9837,"bstar":0.00056286,"rev_number":2887,"period_min":93.845170427975,"perigee_km":461.80859552345,"apogee_km":463.34638814122,"semimajor_km":6840.7144918323,"source":"CELESTRAK","updated_at":"2026-09-20T09:00:43.841895Z"}}